Date String (YYYY-MM-DD hh:mm:ss) UTC,Instrument flags,absolute air pressure of the measurement (hPa),sample flow rate (lpm),inlet stack bypass flow (lpm),air temperature of the measurement (°C),ambient temperature measured by the external sensor (°C),aerosol sample conditioner tube jacket temperature (°C),OPC LED temperature (°C),internal box temperature (°C),relative humidity of the measurement (%),span deviation,mass concentration of particles derived from Lorenz-Mie calculation of OPC scattering (μg/m³),mass concentration of particles derived from Lorenz-Mie calculation of OPC scattering (μg/m³),mass concentration of particles derived from Lorenz-Mie calculation of OPC scattering (μg/m³)
DateTimeUTC,F1_M11,P_M11,Q1_M11,Q2_M11,T1_M11,T2_M11,T3_M11,T4_M11,T5_M11,U1_M11,ZSPAN_M11,X0_M11,X2_M11,X1_M11
2024-04-11 04:00:00,SystemResetWarning,0834.4,5.00,000.00,026.0,025.2,000.0,034.7,027.9,019.4,0000.0,0008.71,0002.78,0001.81
2024-04-11 04:01:00,SystemResetWarning,0834.4,5.00,000.00,026.0,025.1,000.0,034.6,027.9,019.3,0000.0,0009.13,0002.82,0001.80
2024-04-11 04:02:00,SystemResetWarning,0834.4,5.00,000.00,026.0,025.1,000.0,034.6,027.9,019.3,0000.0,0009.02,0002.76,0001.80
2024-04-11 04:03:00,SystemResetWarning,0834.4,5.00,000.00,026.0,025.2,000.0,034.6,027.9,019.3,0000.0,0009.18,0002.72,0001.79
2024-04-11 04:04:00,SystemResetWarning,0834.4,4.99,000.00,026.0,025.1,000.0,034.6,027.9,019.3,0000.0,0009.17,0002.68,0001.77
2024-04-11 04:05:00,SystemResetWarning,0834.4,5.00,000.00,026.0,025.1,000.0,034.6,027.9,019.4,0000.0,0009.24,0002.69,0001.77
2024-04-11 04:06:00,SystemResetWarning,0834.4,5.00,000.00,026.0,025.2,000.0,034.6,027.9,019.3,0000.0,0009.46,0002.69,0001.77
2024-04-11 04:07:00,SystemResetWarning,0834.5,5.01,000.00,026.0,025.2,000.0,034.6,027.9,019.3,0000.0,0008.72,0002.69,0001.76
2024-04-11 04:08:00,SystemResetWarning,0834.5,5.01,000.00,026.0,025.2,000.0,034.6,027.9,019.3,0000.0,0008.78,0002.73,0001.77
2024-04-11 04:09:00,SystemResetWarning,0834.5,5.00,000.00,026.0,025.2,000.0,034.6,027.9,019.4,0000.0,0008.14,0002.71,0001.78
2024-04-11 04:10:00,SystemResetWarning,0834.5,4.99,000.00,026.0,025.2,000.0,034.6,027.9,019.4,0000.0,0008.15,0002.75,0001.79
2024-04-11 04:11:00,SystemResetWarning,0834.5,5.00,000.00,026.0,025.2,000.0,034.6,027.9,019.5,0000.0,0007.87,0002.91,0001.80
2024-04-11 04:12:00,SystemResetWarning,0834.5,5.00,000.00,026.0,025.2,000.0,034.6,027.9,019.5,0000.0,0007.17,0002.91,0001.81
2024-04-11 04:13:00,SystemResetWarning,0834.5,5.00,000.00,026.0,025.2,000.0,034.6,027.9,019.5,0000.0,0007.17,0002.86,0001.80
2024-04-11 04:14:00,SystemResetWarning,0834.5,5.01,000.00,026.0,025.2,000.0,034.6,027.9,019.5,0000.0,0007.03,0002.80,0001.79
2024-04-11 04:15:00,SystemResetWarning,0834.5,5.01,000.00,026.0,025.2,000.0,034.6,027.9,019.6,0000.0,0007.38,0002.86,0001.79
2024-04-11 04:16:00,SystemResetWarning,0834.5,5.01,000.00,026.0,025.2,000.0,034.6,027.9,019.5,0000.0,0007.34,0002.86,0001.80
2024-04-11 04:17:00,SystemResetWarning,0834.5,4.99,000.00,026.0,025.2,000.0,034.6,027.9,019.5,0000.0,0007.18,0002.88,0001.79
2024-04-11 04:18:00,SystemResetWarning,0834.5,4.99,000.00,026.0,025.2,000.0,034.6,027.9,019.3,0000.0,0007.12,0002.86,0001.79
2024-04-11 04:19:00,SystemResetWarning,0834.5,5.00,000.00,026.0,025.1,000.0,034.6,027.9,018.7,0000.0,0007.01,0002.80,0001.78
2024-04-11 04:20:00,SystemResetWarning,0834.4,5.00,000.00,026.0,025.1,000.0,034.6,027.9,018.1,0000.0,0006.99,0002.78,0001.75
2024-04-11 04:21:00,SystemResetWarning,0834.4,5.01,000.00,026.0,025.1,000.0,034.6,027.9,017.8,0000.0,0007.00,0002.76,0001.72
2024-04-11 04:22:00,SystemResetWarning,0834.4,5.00,000.00,026.0,025.1,000.0,034.6,027.8,017.7,0000.0,0006.41,0002.64,0001.66
2024-04-11 04:23:00,SystemResetWarning,0834.4,5.00,000.00,025.9,025.1,000.0,034.6,027.8,017.7,0000.0,0006.54,0002.62,0001.62
2024-04-11 04:24:00,SystemResetWarning,0834.4,4.99,000.00,025.9,025.1,000.0,034.6,027.8,017.6,0000.0,0006.76,0002.65,0001.57
2024-04-11 04:25:00,SystemResetWarning,0834.4,5.00,000.00,025.9,025.1,000.0,034.6,027.8,017.6,0000.0,0006.88,0002.68,0001.53
2024-04-11 04:26:00,SystemResetWarning,0834.4,4.99,000.00,025.9,025.0,000.0,034.6,027.8,017.7,0000.0,0006.98,0002.56,0001.47
2024-04-11 04:27:00,SystemResetWarning,0834.4,4.99,000.00,025.9,025.0,000.0,034.6,027.8,017.9,0000.0,0008.56,0002.47,0001.42
2024-04-11 04:28:00,SystemResetWarning,0834.4,4.99,000.00,025.9,025.1,000.0,034.6,027.8,017.9,0000.0,0009.17,0002.38,0001.39
2024-04-11 04:29:00,SystemResetWarning,0834.5,5.01,000.00,025.9,025.0,000.0,034.6,027.8,018.0,0000.0,0009.43,0002.34,0001.34
2024-04-11 04:30:00,SystemResetWarning,0834.4,5.01,000.00,025.9,025.1,000.0,034.6,027.8,017.8,0000.0,0009.36,0002.27,0001.29
2024-04-11 04:31:00,SystemResetWarning,0834.4,4.99,000.00,025.9,025.1,000.0,034.6,027.8,017.7,0000.0,0009.32,0002.22,0001.25
2024-04-11 04:32:00,SystemResetWarning,0834.4,5.00,000.00,025.9,025.1,000.0,034.6,027.8,017.6,0000.0,0009.18,0002.12,0001.24
2024-04-11 04:33:00,SystemResetWarning,0834.4,5.00,000.00,025.9,025.0,000.0,034.6,027.8,017.7,0000.0,0009.01,0002.07,0001.23
2024-04-11 04:34:00,SystemResetWarning,0834.4,5.01,000.00,025.9,025.0,000.0,034.6,027.8,017.8,0000.0,0008.76,0001.96,0001.22
2024-04-11 04:35:00,SystemResetWarning,0834.4,5.00,000.00,025.9,025.0,000.0,034.6,027.8,017.8,0000.0,0008.63,0001.90,0001.22
2024-04-11 04:36:00,SystemResetWarning,0834.5,4.99,000.00,025.9,025.0,000.0,034.6,027.8,017.8,0000.0,0008.84,0001.85,0001.22
2024-04-11 04:37:00,SystemResetWarning,0834.5,5.00,000.00,025.9,025.0,000.0,034.6,027.8,017.7,0000.0,0009.15,0001.89,0001.22
2024-04-11 04:38:00,SystemResetWarning,0834.4,5.00,000.00,025.9,025.0,000.0,034.5,027.8,017.8,0000.0,0008.07,0001.88,0001.21
2024-04-11 04:39:00,SystemResetWarning,0834.4,5.00,000.00,025.9,025.0,000.0,034.5,027.8,018.0,0000.0,0008.38,0001.91,0001.20
2024-04-11 04:40:00,SystemResetWarning,0834.4,5.00,000.00,025.9,025.0,000.0,034.5,027.8,018.1,0000.0,0008.17,0001.88,0001.19
2024-04-11 04:41:00,SystemResetWarning,0834.4,5.01,000.00,025.9,025.0,000.0,034.5,027.8,018.0,0000.0,0008.13,0001.89,0001.19
2024-04-11 04:42:00,SystemResetWarning,0834.4,5.01,000.00,025.9,025.0,000.0,034.5,027.8,018.0,0000.0,0008.22,0001.92,0001.20
2024-04-11 04:43:00,SystemResetWarning,0834.4,4.99,000.00,025.9,025.0,000.0,034.5,027.8,018.1,0000.0,0008.31,0001.95,0001.20
2024-04-11 04:44:00,SystemResetWarning,0834.4,4.99,000.00,025.9,025.0,000.0,034.5,027.8,018.1,0000.0,0008.44,0001.99,0001.20
2024-04-11 04:45:00,SystemResetWarning,0834.5,5.00,000.00,025.9,025.0,000.0,034.5,027.8,018.1,0000.0,0008.46,0002.00,0001.21
2024-04-11 04:46:00,SystemResetWarning,0834.5,5.00,000.00,025.9,025.0,000.0,034.5,027.8,017.9,0000.0,0008.49,0002.00,0001.20
2024-04-11 04:47:00,SystemResetWarning,0834.5,5.00,000.00,025.9,025.0,000.0,034.5,027.7,017.7,0000.0,0008.95,0002.00,0001.19
2024-04-11 04:48:00,SystemResetWarning,0834.5,5.01,000.00,025.9,025.0,000.0,034.5,027.8,017.8,0000.0,0008.05,0001.96,0001.19
2024-04-11 04:49:00,SystemResetWarning,0834.5,5.00,000.00,025.8,025.0,000.0,034.5,027.8,017.7,0000.0,0008.03,0001.98,0001.19
2024-04-11 04:50:00,SystemResetWarning,0834.5,5.00,000.00,025.8,025.0,000.0,034.5,027.7,017.6,0000.0,0006.46,0001.96,0001.18
2024-04-11 04:51:00,SystemResetWarning,0834.5,5.01,000.00,025.8,025.0,000.0,034.5,027.7,017.5,0000.0,0005.71,0001.91,0001.19
2024-04-11 04:52:00,SystemResetWarning,0834.5,4.99,000.00,025.8,025.0,000.0,034.5,027.7,017.5,0000.0,0005.87,0001.92,0001.20
2024-04-11 04:53:00,SystemResetWarning,0834.5,4.99,000.00,025.8,025.0,000.0,034.5,027.7,017.5,0000.0,0006.85,0001.96,0001.21
2024-04-11 04:54:00,SystemResetWarning,0834.5,5.01,000.00,025.8,025.0,000.0,034.5,027.7,017.5,0000.0,0007.58,0001.95,0001.21
2024-04-11 04:55:00,SystemResetWarning,0834.5,5.01,000.00,025.8,024.9,000.0,034.5,027.7,017.5,0000.0,0007.84,0001.97,0001.23
2024-04-11 04:56:00,SystemResetWarning,0834.5,4.98,000.00,025.8,024.9,000.0,034.5,027.7,017.6,0000.0,0007.80,0001.95,0001.25
2024-04-11 04:57:00,SystemResetWarning,0834.5,5.01,000.00,025.8,024.9,000.0,034.5,027.7,017.7,0000.0,0008.23,0001.95,0001.26
2024-04-11 04:58:00,SystemResetWarning,0834.5,5.01,000.00,025.8,024.9,000.0,034.5,027.7,017.7,0000.0,0008.76,0001.97,0001.29
2024-04-11 04:59:00,SystemResetWarning,0834.5,4.99,000.00,025.8,024.9,000.0,034.4,027.6,017.7,0000.0,0008.53,0001.99,0001.30
